owner,sensor,date,latitude,longitude,vertical_datum,direction_of_sea_water_velocity,sea_water_speed,upward_sea_water_velocity,qcFlag 
TABS,ioos:station:wmo:42048:1,2010-10-14T08:30:00Z,27.9396,-96.8429,2.0,117.8177084,37.84331513,-99999.0,'11111222,11111222,99999999' 
TABS,ioos:station:wmo:42048:1,2010-10-14T09:00:00Z,27.9396,-96.8429,2.0,55.05665722,32.84056181,-99999.0,'11111222,11111222,99999999' 
TABS,ioos:station:wmo:42048:1,2010-10-14T09:30:00Z,27.9396,-96.8429,2.0,195.4499081,43.54355176,-99999.0,'11111222,11111222,99999999' 
TABS,ioos:station:wmo:42048:1,2010-10-14T10:00:00Z,27.9396,-96.8429,2.0,199.469894,35.88189655,-99999.0,'11111222,11111222,99999999' 
TABS,ioos:station:wmo:42048:1,2010-10-14T10:30:00Z,27.9396,-96.8429,2.0,195.7701915,55.77963786,-99999.0,'11111222,11111222,99999999' 
TABS,ioos:station:wmo:42048:1,2010-10-14T11:00:00Z,27.9396,-96.8429,2.0,165.2126203,48.11349915,-99999.0,'11111222,11111222,99999999' 
TABS,ioos:station:wmo:42048:1,2010-10-14T11:30:00Z,27.9396,-96.8429,2.0,175.3813752,15.40000325,-99999.0,'11111222,11111222,99999999' 
TABS,ioos:station:wmo:42048:1,2010-10-14T12:00:00Z,27.9396,-96.8429,2.0,103.3324923,49.56589352,-99999.0,'11111222,11111222,99999999' 
TABS,ioos:station:wmo:42048:1,2010-10-14T12:30:00Z,27.9396,-96.8429,2.0,148.6295504,26.58637997,-99999.0,'11111222,11111222,99999999' 
TABS,ioos:station:wmo:42048:1,2010-10-14T13:00:00Z,27.9396,-96.8429,2.0,143.8368111,14.59111031,-99999.0,'11111222,11111222,99999999' 
TABS,ioos:station:wmo:42048:1,2010-10-14T13:30:00Z,27.9396,-96.8429,2.0,143.8368111,14.59111031,-99999.0,'11111222,11111222,99999999' 
TABS,ioos:station:wmo:42048:1,2010-10-14T14:00:00Z,27.9396,-96.8429,2.0,40.63019661,41.01830079,-99999.0,'11111222,11111222,99999999' 
TABS,ioos:station:wmo:42048:1,2010-10-14T14:30:00Z,27.9396,-96.8429,2.0,104.1983473,38.56816952,-99999.0,'11111222,11111222,99999999' 
TABS,ioos:station:wmo:42048:1,2010-10-14T15:00:00Z,27.9396,-96.8429,2.0,18.40316099,28.34982363,-99999.0,'11111222,11111222,99999999' 
TABS,ioos:station:wmo:42048:1,2010-10-14T15:30:00Z,27.9396,-96.8429,2.0,70.51451082,13.97012885,-99999.0,'11111222,11111222,99999999' 
TABS,ioos:station:wmo:42048:1,2010-10-14T16:00:00Z,27.9396,-96.8429,2.0,64.8327663,32.45053004,-99999.0,'11111222,11111222,99999999' 
TABS,ioos:station:wmo:42048:1,2010-10-14T16:30:00Z,27.9396,-96.8429,2.0,140.0156497,10.67576695,-99999.0,'11111222,11111222,99999999' 
TABS,ioos:station:wmo:42048:1,2010-10-14T17:00:00Z,27.9396,-96.8429,2.0,315.4969069,26.10736295,-99999.0,'11111222,11111222,99999999' 
TABS,ioos:station:wmo:42048:1,2010-10-14T17:30:00Z,27.9396,-96.8429,2.0,214.52505,15.79121908,-99999.0,'11111222,11111222,99999999' 
TABS,ioos:station:wmo:42048:1,2010-10-14T18:00:00Z,27.9396,-96.8429,2.0,127.0528918,39.43220131,-99999.0,'11111222,11111222,99999999' 
TABS,ioos:station:wmo:42048:1,2010-10-14T18:30:00Z,27.9396,-96.8429,2.0,203.4386784,44.44761861,-99999.0,'11111222,11111222,99999999' 
TABS,ioos:station:wmo:42048:1,2010-10-14T19:00:00Z,27.9396,-96.8429,2.0,201.4833512,37.16192272,-99999.0,'11111222,11111222,99999999' 
TABS,ioos:station:wmo:42048:1,2010-10-14T19:30:00Z,27.9396,-96.8429,2.0,125.2834214,28.82504814,-99999.0,'11111222,11111222,99999999' 
TABS,ioos:station:wmo:42048:1,2010-10-14T20:00:00Z,27.9396,-96.8429,2.0,105.4004928,36.97776224,-99999.0,'11111222,11111222,99999999' 
TABS,ioos:station:wmo:42048:1,2010-10-14T20:30:00Z,27.9396,-96.8429,2.0,35.42220859,49.55181934,-99999.0,'11111222,11111222,99999999' 
TABS,ioos:station:wmo:42048:1,2010-10-14T21:00:00Z,27.9396,-96.8429,2.0,162.4270781,6.094399068,-99999.0,'11133222,11111222,99999999' 
TABS,ioos:station:wmo:42048:1,2010-10-14T21:30:00Z,27.9396,-96.8429,2.0,147.4340122,37.60204383,-99999.0,'11111222,11111222,99999999' 
TABS,ioos:station:wmo:42048:1,2010-10-14T22:00:00Z,27.9396,-96.8429,2.0,104.1585369,53.39191418,-99999.0,'11111222,11111222,99999999' 
TABS,ioos:station:wmo:42048:1,2010-10-14T22:30:00Z,27.9396,-96.8429,2.0,141.1441313,36.53394175,-99999.0,'11111222,11111222,99999999' 
TABS,ioos:station:wmo:42048:1,2010-10-14T23:00:00Z,27.9396,-96.8429,2.0,183.2386719,53.27509925,-99999.0,'11111222,11111222,99999999' 
TABS,ioos:station:wmo:42048:1,2010-10-14T23:30:00Z,27.9396,-96.8429,2.0,82.20718645,31.71287436,-99999.0,'11111222,11111222,99999999' 
TABS,ioos:station:wmo:42048:1,2010-10-15T00:00:00Z,27.9396,-96.8429,2.0,117.12124,15.66215822,-99999.0,'11111222,11111222,99999999' 
TABS,ioos:station:wmo:42048:1,2010-10-15T00:30:00Z,27.9396,-96.8429,2.0,119.1623437,67.10625902,-99999.0,'11111222,11111222,99999999' 
TABS,ioos:station:wmo:42048:1,2010-10-15T01:00:00Z,27.9396,-96.8429,2.0,283.9091783,26.16723333,-99999.0,'11111222,11111222,99999999' 
TABS,ioos:station:wmo:42048:1,2010-10-15T01:30:00Z,27.9396,-96.8429,2.0,204.3375495,30.37980908,-99999.0,'11111222,11111222,99999999' 
TABS,ioos:station:wmo:42048:1,2010-10-15T02:00:00Z,27.9396,-96.8429,2.0,129.5231551,17.92922196,-99999.0,'11111222,11111222,99999999' 
TABS,ioos:station:wmo:42048:1,2010-10-15T02:30:00Z,27.9396,-96.8429,2.0,145.8575753,25.30066402,-99999.0,'11111222,11111222,99999999' 
TABS,ioos:station:wmo:42048:1,2010-10-15T03:00:00Z,27.9396,-96.8429,2.0,102.4705354,52.2835213,-99999.0,'11111222,11111222,99999999' 
TABS,ioos:station:wmo:42048:1,2010-10-15T03:30:00Z,27.9396,-96.8429,2.0,137.1001257,73.31965766,-99999.0,'11111222,11111222,99999999' 
TABS,ioos:station:wmo:42048:1,2010-10-15T04:00:00Z,27.9396,-96.8429,2.0,47.6538558,36.65329726,-99999.0,'11111222,11111222,99999999' 
TABS,ioos:station:wmo:42048:1,2010-10-15T04:30:00Z,27.9396,-96.8429,2.0,165.9395383,40.46222189,-99999.0,'11111222,11111222,99999999' 
TABS,ioos:station:wmo:42048:1,2010-10-15T05:00:00Z,27.9396,-96.8429,2.0,147.7728064,68.21985415,-99999.0,'11111222,11111222,99999999' 
TABS,ioos:station:wmo:42048:1,2010-10-15T05:30:00Z,27.9396,-96.8429,2.0,95.27273132,30.46892844,-99999.0,'11111222,11111222,99999999' 
TABS,ioos:station:wmo:42048:1,2010-10-15T06:00:00Z,27.9396,-96.8429,2.0,123.4699745,26.0017634,-99999.0,'11111222,11111222,99999999' 
TABS,ioos:station:wmo:42048:1,2010-10-15T06:30:00Z,27.9396,-96.8429,2.0,55.52946492,26.46720235,-99999.0,'11111222,11111222,99999999' 
TABS,ioos:station:wmo:42048:1,2010-10-15T07:00:00Z,27.9396,-96.8429,2.0,117.1843117,63.30231038,-99999.0,'11111222,11111222,99999999' 
TABS,ioos:station:wmo:42048:1,2010-10-15T07:30:00Z,27.9396,-96.8429,2.0,146.9874785,27.20162679,-99999.0,'11111222,11111222,99999999' 
TABS,ioos:station:wmo:42048:1,2010-10-15T08:00:00Z,27.9396,-96.8429,2.0,217.0495696,7.004034552,-99999.0,'11133222,11111222,99999999' 
TABS,ioos:station:wmo:42048:1,2010-10-15T08:30:00Z,27.9396,-96.8429,2.0,255.5260056,5.401425738,-99999.0,'11133222,11111222,99999999' 
TABS,ioos:station:wmo:42048:1,2010-10-15T09:00:00Z,27.9396,-96.8429,2.0,293.2529587,6.965809357,-99999.0,'11133222,11111222,99999999' 
TABS,ioos:station:wmo:42048:1,2010-10-15T09:30:00Z,27.9396,-96.8429,2.0,303.57427,8.20957977,-99999.0,'11133222,11111222,99999999' 
TABS,ioos:station:wmo:42048:1,2010-10-15T10:00:00Z,27.9396,-96.8429,2.0,300.6986374,10.73421166,-99999.0,'11111222,11111222,99999999' 
TABS,ioos:station:wmo:42048:1,2010-10-15T10:30:00Z,27.9396,-96.8429,2.0,297.9386727,6.531194378,-99999.0,'11133222,11111222,99999999' 
TABS,ioos:station:wmo:42048:1,2010-10-15T11:00:00Z,27.9396,-96.8429,2.0,288.4173261,10.06553029,-99999.0,'11111222,11111222,99999999' 
TABS,ioos:station:wmo:42048:1,2010-10-15T11:30:00Z,27.9396,-96.8429,2.0,300.7328535,8.923144065,-99999.0,'11133222,11111222,99999999' 
TABS,ioos:station:wmo:42048:1,2010-10-15T12:00:00Z,27.9396,-96.8429,2.0,290.6239041,7.949440232,-99999.0,'11133222,11111222,99999999' 
TABS,ioos:station:wmo:42048:1,2010-10-15T12:30:00Z,27.9396,-96.8429,2.0,305.1881543,6.472789198,-99999.0,'11133222,11111222,99999999' 
TABS,ioos:station:wmo:42048:1,2010-10-15T13:00:00Z,27.9396,-96.8429,2.0,317.3108823,6.489445277,-99999.0,'11133222,11111222,99999999' 
TABS,ioos:station:wmo:42048:1,2010-10-15T13:30:00Z,27.9396,-96.8429,2.0,289.6638773,3.982222997,-99999.0,'11133222,11111222,99999999' 
TABS,ioos:station:wmo:42048:1,2010-10-15T14:00:00Z,27.9396,-96.8429,2.0,235.3126257,4.463238734,-99999.0,'11133222,11111222,99999999' 
TABS,ioos:station:wmo:42048:1,2010-10-15T14:30:00Z,27.9396,-96.8429,2.0,222.6691709,4.868921852,-99999.0,'11133222,11111222,99999999' 
TABS,ioos:station:wmo:42048:1,2010-10-15T15:00:00Z,27.9396,-96.8429,2.0,247.0475802,3.05158975,-99999.0,'11133222,11111222,99999999' 
TABS,ioos:station:wmo:42048:1,2010-10-15T15:30:00Z,27.9396,-96.8429,2.0,282.7400379,3.537075063,-99999.0,'11133222,11111222,99999999' 
TABS,ioos:station:wmo:42048:1,2010-10-15T16:00:00Z,27.9396,-96.8429,2.0,275.0202628,2.971396978,-99999.0,'11133222,11111222,99999999' 
TABS,ioos:station:wmo:42048:1,2010-10-15T16:30:00Z,27.9396,-96.8429,2.0,322.5949413,5.35023364,-99999.0,'11133222,11111222,99999999' 
TABS,ioos:station:wmo:42048:1,2010-10-15T17:00:00Z,27.9396,-96.8429,2.0,349.6155574,4.493606569,-99999.0,'11133222,11111222,99999999' 
TABS,ioos:station:wmo:42048:1,2010-10-15T17:30:00Z,27.9396,-96.8429,2.0,335.0682076,8.160490181,-99999.0,'11133222,11111222,99999999' 
TABS,ioos:station:wmo:42048:1,2010-10-15T18:00:00Z,27.9396,-96.8429,2.0,353.1874455,9.104284706,-99999.0,'11133222,11111222,99999999' 
TABS,ioos:station:wmo:42048:1,2010-10-15T18:30:00Z,27.9396,-96.8429,2.0,2.425283867,11.58037132,-99999.0,'11111222,11111222,99999999' 
TABS,ioos:station:wmo:42048:1,2010-10-15T19:00:00Z,27.9396,-96.8429,2.0,355.4684737,13.54233732,-99999.0,'11111222,11111222,99999999' 
TABS,ioos:station:wmo:42048:1,2010-10-15T19:30:00Z,27.9396,-96.8429,2.0,359.9601436,14.3000035,-99999.0,'11111222,11144222,99999999' 
TABS,ioos:station:wmo:42048:1,2010-10-15T20:00:00Z,27.9396,-96.8429,2.0,6.934083794,16.73237879,-99999.0,'11111222,11111222,99999999' 
TABS,ioos:station:wmo:42048:1,2010-10-15T20:30:00Z,27.9396,-96.8429,2.0,12.32462784,16.72544469,-99999.0,'11111222,11111222,99999999' 
TABS,ioos:station:wmo:42048:1,2010-10-15T21:00:00Z,27.9396,-96.8429,2.0,20.75823096,16.92893677,-99999.0,'11111222,11111222,99999999' 
TABS,ioos:station:wmo:42048:1,2010-10-15T21:30:00Z,27.9396,-96.8429,2.0,26.27692197,17.77696543,-99999.0,'11111222,11111222,99999999' 
TABS,ioos:station:wmo:42048:1,2010-10-15T22:00:00Z,27.9396,-96.8429,2.0,23.85362954,16.54306501,-99999.0,'11111222,11111222,99999999' 
TABS,ioos:station:wmo:42048:1,2010-10-15T22:30:00Z,27.9396,-96.8429,2.0,30.55733305,19.33523726,-99999.0,'11111222,11111222,99999999' 
TABS,ioos:station:wmo:42048:1,2010-10-15T23:00:00Z,27.9396,-96.8429,2.0,39.42069463,19.05487864,-99999.0,'11111222,11111222,99999999' 
TABS,ioos:station:wmo:42048:1,2010-10-15T23:30:00Z,27.9396,-96.8429,2.0,31.11020592,20.14771947,-99999.0,'11111222,11111222,99999999' 
TABS,ioos:station:wmo:42048:1,2010-10-16T00:00:00Z,27.9396,-96.8429,2.0,32.95466603,20.09289675,-99999.0,'11111222,11111222,99999999' 
TABS,ioos:station:wmo:42048:1,2010-10-16T00:30:00Z,27.9396,-96.8429,2.0,36.90994568,22.96200557,-99999.0,'11111222,11111222,99999999' 
TABS,ioos:station:wmo:42048:1,2010-10-16T01:00:00Z,27.9396,-96.8429,2.0,48.78398907,21.42962436,-99999.0,'11111222,11111222,99999999' 
TABS,ioos:station:wmo:42048:1,2010-10-16T01:30:00Z,27.9396,-96.8429,2.0,44.92177904,20.68996375,-99999.0,'11111222,11111222,99999999' 
TABS,ioos:station:wmo:42048:1,2010-10-16T02:00:00Z,27.9396,-96.8429,2.0,46.06352023,20.95518313,-99999.0,'11111222,11111222,99999999' 
TABS,ioos:station:wmo:42048:1,2010-10-16T02:30:00Z,27.9396,-96.8429,2.0,42.39316637,20.98743672,-99999.0,'11111222,11111222,99999999' 
TABS,ioos:station:wmo:42048:1,2010-10-16T03:00:00Z,27.9396,-96.8429,2.0,37.68339256,22.5422714,-99999.0,'11111222,11111222,99999999' 
TABS,ioos:station:wmo:42048:1,2010-10-16T03:30:00Z,27.9396,-96.8429,2.0,41.3177475,21.68931765,-99999.0,'11111222,11111222,99999999' 
TABS,ioos:station:wmo:42048:1,2010-10-16T04:00:00Z,27.9396,-96.8429,2.0,45.07389224,21.96275484,-99999.0,'11111222,11111222,99999999' 
TABS,ioos:station:wmo:42048:1,2010-10-16T04:30:00Z,27.9396,-96.8429,2.0,39.1960325,20.69705293,-99999.0,'11111222,11111222,99999999' 
TABS,ioos:station:wmo:42048:1,2010-10-16T05:00:00Z,27.9396,-96.8429,2.0,38.48380132,19.81385879,-99999.0,'11111222,11111222,99999999' 
TABS,ioos:station:wmo:42048:1,2010-10-16T05:30:00Z,27.9396,-96.8429,2.0,39.21044744,22.43071109,-99999.0,'11111222,11111222,99999999' 
TABS,ioos:station:wmo:42048:1,2010-10-16T06:00:00Z,27.9396,-96.8429,2.0,48.38031833,20.74725283,-99999.0,'11111222,11111222,99999999' 
TABS,ioos:station:wmo:42048:1,2010-10-16T06:30:00Z,27.9396,-96.8429,2.0,53.52576599,19.69846948,-99999.0,'11111222,11111222,99999999' 
TABS,ioos:station:wmo:42048:1,2010-10-16T07:00:00Z,27.9396,-96.8429,2.0,54.91634214,20.98219483,-99999.0,'11111222,11111222,99999999' 
TABS,ioos:station:wmo:42048:1,2010-10-16T07:30:00Z,27.9396,-96.8429,2.0,58.54611868,20.04548827,-99999.0,'11111222,11111222,99999999' 
TABS,ioos:station:wmo:42048:1,2010-10-16T08:00:00Z,27.9396,-96.8429,2.0,62.2721809,17.4091384,-99999.0,'11111222,11111222,99999999' 
TABS,ioos:station:wmo:42048:1,2010-10-16T08:30:00Z,27.9396,-96.8429,2.0,61.38745827,21.27859253,-99999.0,'11111222,11111222,99999999' 
TABS,ioos:station:wmo:42048:1,2010-10-16T09:00:00Z,27.9396,-96.8429,2.0,65.96377477,21.28573466,-99999.0,'11111222,11111222,99999999' 
TABS,ioos:station:wmo:42048:1,2010-10-16T09:30:00Z,27.9396,-96.8429,2.0,68.99656305,18.13490833,-99999.0,'11111222,11111222,99999999' 
TABS,ioos:station:wmo:42048:1,2010-10-16T10:00:00Z,27.9396,-96.8429,2.0,72.46957903,17.62873223,-99999.0,'11111222,11111222,99999999' 
TABS,ioos:station:wmo:42048:1,2010-10-16T10:30:00Z,27.9396,-96.8429,2.0,75.66797437,16.44170916,-99999.0,'11111222,11111222,99999999' 
TABS,ioos:station:wmo:42048:1,2010-10-16T11:00:00Z,27.9396,-96.8429,2.0,79.24608477,16.77460283,-99999.0,'11111222,11111222,99999999' 
TABS,ioos:station:wmo:42048:1,2010-10-16T11:30:00Z,27.9396,-96.8429,2.0,74.54899797,13.85058122,-99999.0,'11111222,11111222,99999999' 
TABS,ioos:station:wmo:42048:1,2010-10-16T12:00:00Z,27.9396,-96.8429,2.0,78.50477178,14.55189335,-99999.0,'11111222,11111222,99999999' 
TABS,ioos:station:wmo:42048:1,2010-10-16T12:30:00Z,27.9396,-96.8429,2.0,85.34576127,14.78876601,-99999.0,'11111222,11111222,99999999' 
TABS,ioos:station:wmo:42048:1,2010-10-16T13:00:00Z,27.9396,-96.8429,2.0,71.56509429,11.95340956,-99999.0,'11111222,11111222,99999999' 
TABS,ioos:station:wmo:42048:1,2010-10-16T13:30:00Z,27.9396,-96.8429,2.0,75.84808323,13.21094243,-99999.0,'11111222,11111222,99999999' 
TABS,ioos:station:wmo:42048:1,2010-10-16T14:00:00Z,27.9396,-96.8429,2.0,74.84596739,10.44314608,-99999.0,'11111222,11111222,99999999' 
TABS,ioos:station:wmo:42048:1,2010-10-16T14:30:00Z,27.9396,-96.8429,2.0,75.2909852,9.294605963,-99999.0,'11133222,11111222,99999999' 
TABS,ioos:station:wmo:42048:1,2010-10-16T15:00:00Z,27.9396,-96.8429,2.0,60.97580147,9.171853684,-99999.0,'11133222,11111222,99999999' 
TABS,ioos:station:wmo:42048:1,2010-10-16T15:30:00Z,27.9396,-96.8429,2.0,37.16377764,8.972117922,-99999.0,'11133222,11111222,99999999' 
TABS,ioos:station:wmo:42048:1,2010-10-16T16:00:00Z,27.9396,-96.8429,2.0,27.26311859,8.077276769,-99999.0,'11133222,11111222,99999999' 
TABS,ioos:station:wmo:42048:1,2010-10-16T16:30:00Z,27.9396,-96.8429,2.0,15.15533442,10.55716344,-99999.0,'11111222,11111222,99999999' 
TABS,ioos:station:wmo:42048:1,2010-10-16T17:00:00Z,27.9396,-96.8429,2.0,30.00793375,7.298280619,-99999.0,'11133222,11111222,99999999' 
TABS,ioos:station:wmo:42048:1,2010-10-16T17:30:00Z,27.9396,-96.8429,2.0,25.33699711,8.762927593,-99999.0,'11133222,11111222,99999999' 
TABS,ioos:station:wmo:42048:1,2010-10-16T18:00:00Z,27.9396,-96.8429,2.0,33.75441396,9.898631219,-99999.0,'11133222,11111222,99999999' 
TABS,ioos:station:wmo:42048:1,2010-10-16T18:30:00Z,27.9396,-96.8429,2.0,25.8743074,10.01384042,-99999.0,'11111222,11111222,99999999' 
TABS,ioos:station:wmo:42048:1,2010-10-16T19:00:00Z,27.9396,-96.8429,2.0,28.68168408,10.29293447,-99999.0,'11111222,11111222,99999999' 
TABS,ioos:station:wmo:42048:1,2010-10-16T19:30:00Z,27.9396,-96.8429,2.0,21.24769636,9.989018971,-99999.0,'11133222,11111222,99999999' 
TABS,ioos:station:wmo:42048:1,2010-10-16T20:00:00Z,27.9396,-96.8429,2.0,15.45001031,10.3230325,-99999.0,'11111222,11111222,99999999' 
TABS,ioos:station:wmo:42048:1,2010-10-16T20:30:00Z,27.9396,-96.8429,2.0,28.46767706,10.23789041,-99999.0,'11111222,11111222,99999999' 
TABS,ioos:station:wmo:42048:1,2010-10-16T21:00:00Z,27.9396,-96.8429,2.0,38.3535374,11.97401353,-99999.0,'11111222,11111222,99999999' 
TABS,ioos:station:wmo:42048:1,2010-10-16T21:30:00Z,27.9396,-96.8429,2.0,27.58458741,12.56869126,-99999.0,'11111222,11111222,99999999' 
TABS,ioos:station:wmo:42048:1,2010-10-16T22:00:00Z,27.9396,-96.8429,2.0,30.15696702,12.42115937,-99999.0,'11111222,11111222,99999999' 
TABS,ioos:station:wmo:42048:1,2010-10-16T22:30:00Z,27.9396,-96.8429,2.0,22.21029113,13.01571742,-99999.0,'11111222,11111222,99999999' 
TABS,ioos:station:wmo:42048:1,2010-10-16T23:00:00Z,27.9396,-96.8429,2.0,18.06794375,11.34964757,-99999.0,'11111222,11111222,99999999' 
TABS,ioos:station:wmo:42048:1,2010-10-16T23:30:00Z,27.9396,-96.8429,2.0,353.229108,13.65524441,-99999.0,'11111222,11111222,99999999' 
TABS,ioos:station:wmo:42048:1,2010-10-17T00:00:00Z,27.9396,-96.8429,2.0,344.4944068,13.4287639,-99999.0,'11111222,11111222,99999999' 
TABS,ioos:station:wmo:42048:1,2010-10-17T00:30:00Z,27.9396,-96.8429,2.0,350.1261743,17.84432683,-99999.0,'11111222,11111222,99999999' 
TABS,ioos:station:wmo:42048:1,2010-10-17T01:00:00Z,27.9396,-96.8429,2.0,356.6530509,19.182724,-99999.0,'11111222,11111222,99999999' 
TABS,ioos:station:wmo:42048:1,2010-10-17T01:30:00Z,27.9396,-96.8429,2.0,3.439382838,22.67082927,-99999.0,'11111222,11111222,99999999' 
TABS,ioos:station:wmo:42048:1,2010-10-17T02:00:00Z,27.9396,-96.8429,2.0,4.407609104,25.2446529,-99999.0,'11111222,11111222,99999999' 
TABS,ioos:station:wmo:42048:1,2010-10-17T02:30:00Z,27.9396,-96.8429,2.0,9.884653569,24.99096837,-99999.0,'11111222,11111222,99999999' 
TABS,ioos:station:wmo:42048:1,2010-10-17T03:00:00Z,27.9396,-96.8429,2.0,7.594836068,27.54159763,-99999.0,'11111222,11111222,99999999' 
TABS,ioos:station:wmo:42048:1,2010-10-17T03:30:00Z,27.9396,-96.8429,2.0,7.324700925,25.64929824,-99999.0,'11111222,11111222,99999999' 
TABS,ioos:station:wmo:42048:1,2010-10-17T04:00:00Z,27.9396,-96.8429,2.0,9.001944531,26.58746321,-99999.0,'11111222,11111222,99999999' 
TABS,ioos:station:wmo:42048:1,2010-10-17T04:30:00Z,27.9396,-96.8429,2.0,8.326979075,24.30623171,-99999.0,'11111222,11111222,99999999' 
TABS,ioos:station:wmo:42048:1,2010-10-17T05:00:00Z,27.9396,-96.8429,2.0,18.72814189,21.02309682,-99999.0,'11111222,11111222,99999999' 
TABS,ioos:station:wmo:42048:1,2010-10-17T05:30:00Z,27.9396,-96.8429,2.0,15.81260114,23.08350493,-99999.0,'11111222,11111222,99999999' 
TABS,ioos:station:wmo:42048:1,2010-10-17T06:00:00Z,27.9396,-96.8429,2.0,22.44575628,24.27934307,-99999.0,'11111222,11111222,99999999' 
TABS,ioos:station:wmo:42048:1,2010-10-17T06:30:00Z,27.9396,-96.8429,2.0,27.92865012,25.74890483,-99999.0,'11111222,11111222,99999999' 
TABS,ioos:station:wmo:42048:1,2010-10-17T07:00:00Z,27.9396,-96.8429,2.0,31.24952819,26.83300207,-99999.0,'11111222,11111222,99999999' 
TABS,ioos:station:wmo:42048:1,2010-10-17T07:30:00Z,27.9396,-96.8429,2.0,31.27028549,27.26008988,-99999.0,'11111222,11111222,99999999' 
TABS,ioos:station:wmo:42048:1,2010-10-17T08:00:00Z,27.9396,-96.8429,2.0,33.69567837,29.00249989,-99999.0,'11111222,11111222,99999999' 
TABS,ioos:station:wmo:42048:1,2010-10-17T08:30:00Z,27.9396,-96.8429,2.0,35.26463059,31.69644144,-99999.0,'11111222,11111222,99999999' 
TABS,ioos:station:wmo:42048:1,2010-10-17T09:00:00Z,27.9396,-96.8429,2.0,40.02518322,30.41410364,-99999.0,'11111222,11111222,99999999' 
TABS,ioos:station:wmo:42048:1,2010-10-17T09:30:00Z,27.9396,-96.8429,2.0,46.83579108,30.68296759,-99999.0,'11111222,11111222,99999999' 
TABS,ioos:station:wmo:42048:1,2010-10-17T10:00:00Z,27.9396,-96.8429,2.0,52.28082976,31.30143926,-99999.0,'11111222,11111222,99999999' 
TABS,ioos:station:wmo:42048:1,2010-10-17T10:30:00Z,27.9396,-96.8429,2.0,52.86984664,28.61029535,-99999.0,'11111222,11111222,99999999' 
TABS,ioos:station:wmo:42048:1,2010-10-17T11:00:00Z,27.9396,-96.8429,2.0,55.45171373,28.14309862,-99999.0,'11111222,11111222,99999999' 
TABS,ioos:station:wmo:42048:1,2010-10-17T11:30:00Z,27.9396,-96.8429,2.0,57.57672397,25.7194129,-99999.0,'11111222,11111222,99999999' 
TABS,ioos:station:wmo:42048:1,2010-10-17T12:00:00Z,27.9396,-96.8429,2.0,58.73278678,24.60353227,-99999.0,'11111222,11111222,99999999' 
TABS,ioos:station:wmo:42048:1,2010-10-17T12:30:00Z,27.9396,-96.8429,2.0,64.44749427,24.29643595,-99999.0,'11111222,11111222,99999999' 
TABS,ioos:station:wmo:42048:1,2010-10-17T13:00:00Z,27.9396,-96.8429,2.0,64.79331297,21.69595584,-99999.0,'11111222,11111222,99999999' 
TABS,ioos:station:wmo:42048:1,2010-10-17T13:30:00Z,27.9396,-96.8429,2.0,73.13798927,18.20260421,-99999.0,'11111222,11111222,99999999' 
TABS,ioos:station:wmo:42048:1,2010-10-17T14:00:00Z,27.9396,-96.8429,2.0,73.09980237,17.47469027,-99999.0,'11111222,11111222,99999999' 
TABS,ioos:station:wmo:42048:1,2010-10-17T14:30:00Z,27.9396,-96.8429,2.0,70.46652754,16.65877847,-99999.0,'11111222,11111222,99999999' 
TABS,ioos:station:wmo:42048:1,2010-10-17T15:00:00Z,27.9396,-96.8429,2.0,77.88380312,14.91218629,-99999.0,'11111222,11111222,99999999' 
TABS,ioos:station:wmo:42048:1,2010-10-17T15:30:00Z,27.9396,-96.8429,2.0,79.75859097,15.35464099,-99999.0,'11111222,11111222,99999999' 
TABS,ioos:station:wmo:42048:1,2010-10-17T16:00:00Z,27.9396,-96.8429,2.0,89.91930196,14.20001408,-99999.0,'11111222,11111222,99999999' 
TABS,ioos:station:wmo:42048:1,2010-10-17T16:30:00Z,27.9396,-96.8429,2.0,98.20413076,14.2255861,-99999.0,'11111222,11111222,99999999' 
TABS,ioos:station:wmo:42048:1,2010-10-17T17:00:00Z,27.9396,-96.8429,2.0,107.8620902,14.86661024,-99999.0,'11111222,11111222,99999999' 
TABS,ioos:station:wmo:42048:1,2010-10-17T17:30:00Z,27.9396,-96.8429,2.0,110.7244082,13.14026636,-99999.0,'11111222,11111222,99999999' 
TABS,ioos:station:wmo:42048:1,2010-10-17T18:00:00Z,27.9396,-96.8429,2.0,107.3290423,15.07422303,-99999.0,'11111222,11111222,99999999' 
TABS,ioos:station:wmo:42048:1,2010-10-17T18:30:00Z,27.9396,-96.8429,2.0,120.3741858,14.00188559,-99999.0,'11111222,11111222,99999999' 
TABS,ioos:station:wmo:42048:1,2010-10-17T19:00:00Z,27.9396,-96.8429,2.0,127.5094182,11.82473678,-99999.0,'11111222,11111222,99999999' 
TABS,ioos:station:wmo:42048:1,2010-10-17T19:30:00Z,27.9396,-96.8429,2.0,116.8856703,11.98551209,-99999.0,'11111222,11111222,99999999' 
TABS,ioos:station:wmo:42048:1,2010-10-17T20:00:00Z,27.9396,-96.8429,2.0,130.5878113,9.283539196,-99999.0,'11133222,11111222,99999999' 
TABS,ioos:station:wmo:42048:1,2010-10-17T20:30:00Z,27.9396,-96.8429,2.0,143.0941385,9.592001877,-99999.0,'11133222,11111222,99999999' 
TABS,ioos:station:wmo:42048:1,2010-10-17T21:00:00Z,27.9396,-96.8429,2.0,119.5291067,6.918706527,-99999.0,'11133222,11111222,99999999' 
TABS,ioos:station:wmo:42048:1,2010-10-17T21:30:00Z,27.9396,-96.8429,2.0,93.00401295,3.434719785,-99999.0,'11133222,11111222,99999999' 
TABS,ioos:station:wmo:42048:1,2010-10-17T22:00:00Z,27.9396,-96.8429,2.0,109.9749027,6.001008249,-99999.0,'11133222,11111222,99999999' 
TABS,ioos:station:wmo:42048:1,2010-10-17T22:30:00Z,27.9396,-96.8429,2.0,134.9998948,1.004091629,-99999.0,'11133222,11111222,99999999' 
TABS,ioos:station:wmo:42048:1,2010-10-17T23:00:00Z,27.9396,-96.8429,2.0,179.9997895,2.0,-99999.0,'11133222,11111222,99999999' 
TABS,ioos:station:wmo:42048:1,2010-10-17T23:30:00Z,27.9396,-96.8429,2.0,270.0004209,1.0,-99999.0,'11133222,11111222,99999999' 
TABS,ioos:station:wmo:42048:1,2010-10-18T00:00:00Z,27.9396,-96.8429,2.0,257.0049927,4.002499219,-99999.0,'11133222,11111222,99999999' 
TABS,ioos:station:wmo:42048:1,2010-10-18T00:30:00Z,27.9396,-96.8429,2.0,285.0795196,3.997649309,-99999.0,'11133222,11111222,99999999' 